Regional Weather Roundup
Issued by NWS

Home | Current Version | Previous Version | Text Only | Print | Product List | Glossary Off
Versions: 1 2 3 4 5 6 7 8 9 10 11 12 13 14 15 16 17 18 19 20 21 22 23 24 25 26 27

000
ASUS45 KBOU 221207
RWRCO

WEATHER ROUNDUP FOR COLORADO
NATIONAL WEATHER SERVICE DENVER/BOULDER CO
600 AM MDT TUE AUG 22 2017

NOTE: "FAIR" INDICATES FEW OR NO CLOUDS BELOW 12000 FEET WITH NO
SIGNIFICANT WEATHER AND/OR OBSTRUCTIONS TO VISIBILITY.

COZ001>005-013-030-031-221300-
...NORTHWEST COLORADO...

CITY           SKY/WX    TMP DP  RH WIND       PRES   REMARKS
CRAIG          FAIR      43  34  70 CALM      30.34R
HAYDEN         FAIR      53  37  54 E9        30.37R
MEEKER         FAIR      47  37  68 N5        30.35R
RABBIT EARS PA FAIR      46  36  66 CALM      30.62S
STEAMBOAT SPGS FAIR      46  37  71 CALM      30.38R
WALDEN         FAIR      37  32  81 SE8       30.48R
$$

COZ006>008-011-221300-
...WEST CENTRAL VALLEYS...

CITY           SKY/WX    TMP DP  RH WIND       PRES   REMARKS
GRAND JUNCTION FAIR      70  44  39 E10       30.21R
MONTROSE       FAIR      57  45  64 S7        30.32R
EAGLE          FAIR      49  38  65 CALM      30.42R
RIFLE          FAIR      57  40  52 CALM      30.30R
DELTA          FAIR      62  44  51 NE6       30.28S
NUCLA          FAIR      61  39  44 E7        30.35S
$$

COZ017>023-064>068-221300-
...SOUTHWEST COLORADO...

CITY           SKY/WX    TMP DP  RH WIND       PRES   REMARKS
DURANGO        FAIR      53  45  74 CALM      30.35R
CORTEZ         FAIR      55  52  89 NE7       30.32R
PAGOSA SPRINGS FAIR      52  43  71 CALM      30.43R
TELLURIDE      MOCLDY    54  40  58 CALM      30.53S
WOLF CREEK PAS CLOUDY    41  36  81 N9        30.75R
$$

COZ009-010-012-014-032>034-037-058>063-221300-
...CENTRAL COLORADO...

CITY           SKY/WX    TMP DP  RH WIND       PRES   REMARKS
ASPEN          FAIR      51  38  60 SW7       30.44R
BUENA VISTA    FAIR      43  40  89 CALM      30.50R
COPPER MTN     FAIR      50  32  50 S12       30.74R
BERTHOUD PASS  FAIR      41  36  81 W14G25    30.75S
COTTONWOOD PAS FAIR      54  37  54 E8        30.60R
GUNNISON       FAIR      47  41  80 N3        30.49R
KREMMLING      FAIR      43  36  75 CALM      30.47R
LEADVILLE      FAIR      36  32  85 NE3       30.60R
SALIDA         FAIR      50  45  81 CALM      30.55R
SUNLIGHT       FAIR      48  32  53 S7        30.66S
WILKERSON PASS FAIR      46  34  61 W6        30.71S
$$

COZ069>075-221300-
...SAN LUIS VALLEY/SANGRE DE CRISTO MOUNTAINS...

CITY           SKY/WX    TMP DP  RH WIND       PRES   REMARKS
ALAMOSA        CLOUDY    52  47  83 NW5       30.44R
DEL NORTE      FAIR      51  45  80 W12       30.48R
LA VETA PASS   NOT AVBL
SAGUACHE         N/A     50  45  81 MISG        N/A
$$

COZ035-036-038>040-221300-
...NORTHERN COLORADO FRONT RANGE...

CITY           SKY/WX    TMP DP  RH WIND       PRES   REMARKS
DENVER INTL AP FAIR      57  54  89 SE9       30.32R
DMNS CITY PARK   N/A     58  50  76 E8        30.32S
AURORA         NOT AVBL
FRONT RANGE AP FAIR      59  55  88 E16       30.33S
ERIE MUNI ARPT FAIR      56  50  80 CALM      30.37R
BOULDER MUN AP FAIR      57  50  77 CALM      30.32R
CENTENNIAL     FAIR      57  47  69 SW3       30.34S
BROOMFIELD     FAIR      59  48  67 NW8       30.34R
FORT COLLINS   CLOUDY    63  52  67 E3        30.32R
LONGMONT       FAIR      56  49  77 CALM      30.33S HAZE
$$

COZ041-046-047-076>085-087-088-221300-
...PIKES PEAK/PALMER DIVIDE AND SOUTHERN FOOTHILLS...

CITY           SKY/WX    TMP DP  RH WIND       PRES   REMARKS
COLO. SPRINGS  MOCLDY    58  55  90 NW3       30.38R
A. F. ACADEMY  FAIR      50  46  83 N3        30.38R
SCHRIEVER AFB  DRZL/FOG  55  55 100 N6        30.38R VSB 7/8
CHEYENNE MTN   NOT AVBL
ELLICOTT       FAIR     N/A N/A N/A E8        30.36R
FALCON         CLOUDY    56  56  99 NW7       30.42R FOG
FORT CARSON    FAIR      56  53  90 W3        30.35S
LIMON          MOCLDY    58  56  93 CALM      30.34R
MONUMENT HILL  FOG       52  52 100 S3        30.42S VSB<1/4
CANON CITY     MOCLDY    61  52  72 W10       30.33R
WALSENBURG     FAIR      61  55  82 MISG      30.38R
TRINIDAD       FAIR      57  52  83 W6        30.35R
$$

COZ042>045-048>051-090-091-221300-
...NORTHEAST COLORADO...

CITY           SKY/WX    TMP DP  RH WIND       PRES   REMARKS
GREELEY ARPT   CLOUDY    59  54  83 E3        30.31S
AKRON          MOCLDY    56  55  97 E9        30.31R FOG
BURLINGTON     FAIR      59  58  96 N6        30.28R
WRAY           NOT AVBL
YUMA           CLOUDY    57  50  77 E3        30.29R HAZE
STERLING       CLOUDY    55  54  94 CALM      30.29R
HOLYOKE        FAIR      55  54  94 N6        30.28R
FORT MORGAN    CLOUDY    60  55  85 CALM      30.32R
$$

COZ086-089-092>099-221300-
...SOUTHEAST COLORADO...

CITY           SKY/WX    TMP DP  RH WIND       PRES   REMARKS
PUEBLO         CLOUDY    66  59  78 W3        30.30R
LA JUNTA       CLOUDY    68  62  81 NE14      30.26R
LAMAR          CLOUDY    68  63  84 NE10G17   30.22R
SPRINGFIELD      N/A     65  65 100 NE15G24   30.23R
$$




USA.gov is the U.S. government's official web portal to all federal, state and local government web resources and services.